User: anonymous   Login
Location: Albany
(35.0000°S, 118.0000°E)
Time: 22:40:25
(UTC-04:00)
Language:

Cosmos 2227 Rocket - Orbit

View from above orbital plane
View from above orbital plane
View from above satellite
View from above satellite

Ground track
Ground track

The orbit data is extracted from the following two-line orbital elements,

1 22285U 92093B   15184.81363061 -.00000244  00000-0 -10174-3 0  9997
2 22285 071.0223 270.8280 0003019 170.0794 190.0389 14.14972947161482
Epoch (UTC): 03 July 2015 19:31:37
Eccentricity: 0.0003019
inclination: 71.0223°
perigee height: 840 km
apogee height: 844 km
right ascension of ascending node: 270.8280°
argument of perigee: 170.0794°
revolutions per day: 14.14972947
mean anomaly at epoch: 190.0389°
orbit number at epoch: 16148

The dashed part of the orbit path shows where the satellite is in the earth's shadow,  

DLR